Time,TemperatureF,DewpointF,PressureIn,WindDirection,WindDirectionDegrees,WindSpeedMPH,WindSpeedGustMPH,Humidity,HourlyPrecipIn,Conditions,Clouds,dailyrainin,SoftwareType,DateUTC
2013-03-22 00:01:00,28.6,12.3,29.93,WSW,250,4.0,6.0,50,0.00,,,0.00,Wunderground v.1.15,2013-03-22 04:01:00,
2013-03-22 00:02:00,28.6,12.3,29.93,West,273,2.0,6.0,50,0.00,,,0.00,Wunderground v.1.15,2013-03-22 04:02:00,
2013-03-22 00:03:00,28.6,12.3,29.93,West,275,2.0,6.0,50,0.00,,,0.00,Wunderground v.1.15,2013-03-22 04:03:00,
2013-03-22 00:04:00,28.5,12.2,29.93,West,271,5.0,6.0,50,0.00,,,0.00,Wunderground v.1.15,2013-03-22 04:04:00,
2013-03-22 00:10:00,28.4,12.6,29.93,West,269,1.0,3.0,51,0.00,,,0.00,Wunderground v.1.15,2013-03-22 04:10:00,
2013-03-22 00:15:00,28.3,12.5,29.93,West,265,1.0,3.0,51,0.00,,,0.00,Wunderground v.1.15,2013-03-22 04:15:00,
2013-03-22 00:20:00,28.1,12.3,29.93,West,271,5.0,5.0,51,0.00,,,0.00,Wunderground v.1.15,2013-03-22 04:20:00,
2013-03-22 00:26:00,28.2,12.8,29.93,West,264,6.0,7.0,52,0.00,,,0.00,Wunderground v.1.15,2013-03-22 04:26:00,
2013-03-22 00:32:00,28.3,12.5,29.93,West,259,3.0,5.0,51,0.00,,,0.00,Wunderground v.1.15,2013-03-22 04:32:00,
2013-03-22 00:38:00,28.4,12.6,29.93,West,263,5.0,9.0,51,0.00,,,0.00,Wunderground v.1.15,2013-03-22 04:38:00,
2013-03-22 00:43:00,28.4,12.6,29.93,West,275,4.0,8.0,51,0.00,,,0.00,Wunderground v.1.15,2013-03-22 04:43:00,
2013-03-22 00:48:00,28.3,12.9,29.93,SW,235,5.0,8.0,52,0.00,,,0.00,Wunderground v.1.15,2013-03-22 04:48:00,
2013-03-22 00:53:00,28.3,12.9,29.93,WSW,258,4.0,5.0,52,0.00,,,0.00,Wunderground v.1.15,2013-03-22 04:53:00,
2013-03-22 00:58:00,28.2,12.8,29.93,West,275,3.0,6.0,52,0.00,,,0.00,Wunderground v.1.15,2013-03-22 04:58:00,
2013-03-22 01:03:00,28.3,12.9,29.93,West,277,8.0,9.0,52,0.00,,,0.00,Wunderground v.1.15,2013-03-22 05:03:00,
2013-03-22 01:08:00,28.4,13.0,29.93,West,261,5.0,13.0,52,0.00,,,0.00,Wunderground v.1.15,2013-03-22 05:08:00,
2013-03-22 01:14:00,28.5,13.1,29.93,West,262,6.0,8.0,52,0.00,,,0.00,Wunderground v.1.15,2013-03-22 05:14:00,
2013-03-22 01:19:00,28.5,13.1,29.93,West,279,3.0,8.0,52,0.00,,,0.00,Wunderground v.1.15,2013-03-22 05:19:00,
2013-03-22 01:24:00,28.5,13.1,29.93,WNW,284,5.0,6.0,52,0.00,,,0.00,Wunderground v.1.15,2013-03-22 05:24:00,
2013-03-22 01:29:00,28.4,13.0,29.93,West,269,3.0,6.0,52,0.00,,,0.00,Wunderground v.1.15,2013-03-22 05:29:00,
2013-03-22 01:35:00,28.2,12.8,29.93,West,269,5.0,5.0,52,0.00,,,0.00,Wunderground v.1.15,2013-03-22 05:35:00,
2013-03-22 01:41:00,28.1,13.1,29.93,West,269,4.0,4.0,53,0.00,,,0.00,Wunderground v.1.15,2013-03-22 05:41:00,
2013-03-22 01:47:00,27.9,13.0,29.93,West,271,4.0,6.0,53,0.00,,,0.00,Wunderground v.1.15,2013-03-22 05:47:00,
2013-03-22 01:52:00,27.9,13.0,29.93,West,269,4.0,5.0,53,0.00,,,0.00,Wunderground v.1.15,2013-03-22 05:52:00,
2013-03-22 01:57:00,28.0,13.5,29.93,WSW,256,5.0,5.0,54,0.00,,,0.00,Wunderground v.1.15,2013-03-22 05:57:00,
2013-03-22 02:02:00,28.0,13.1,29.93,West,281,11.0,11.0,53,0.00,,,0.00,Wunderground v.1.15,2013-03-22 06:02:00,
2013-03-22 02:07:00,28.1,13.1,29.93,West,261,5.0,14.0,53,0.00,,,0.00,Wunderground v.1.15,2013-03-22 06:07:00,
2013-03-22 02:12:00,28.1,13.1,29.93,NW,313,5.0,9.0,53,0.00,,,0.00,Wunderground v.1.15,2013-03-22 06:12:00,
2013-03-22 02:17:00,28.1,13.6,29.93,WSW,257,7.0,9.0,54,0.00,,,0.00,Wunderground v.1.15,2013-03-22 06:17:00,
2013-03-22 02:22:00,28.1,13.1,29.93,West,263,4.0,6.0,53,0.00,,,0.00,Wunderground v.1.15,2013-03-22 06:22:00,
2013-03-22 02:27:00,28.0,13.5,29.93,West,261,5.0,7.0,54,0.00,,,0.00,Wunderground v.1.15,2013-03-22 06:27:00,
2013-03-22 02:32:00,28.0,13.5,29.93,West,265,4.0,9.0,54,0.00,,,0.00,Wunderground v.1.15,2013-03-22 06:32:00,
2013-03-22 02:37:00,28.0,13.1,29.93,West,269,4.0,9.0,53,0.00,,,0.00,Wunderground v.1.15,2013-03-22 06:37:00,
2013-03-22 02:42:00,28.1,13.1,29.93,West,265,3.0,5.0,53,0.00,,,0.00,Wunderground v.1.15,2013-03-22 06:42:00,
2013-03-22 02:47:00,28.0,13.1,29.93,West,270,1.0,5.0,53,0.00,,,0.00,Wunderground v.1.15,2013-03-22 06:47:00,
2013-03-22 02:52:00,27.9,13.4,29.93,WSW,256,2.0,3.0,54,0.00,,,0.00,Wunderground v.1.15,2013-03-22 06:52:00,
2013-03-22 02:57:00,27.8,13.3,29.93,WSW,256,0.0,3.0,54,0.00,,,0.00,Wunderground v.1.15,2013-03-22 06:57:00,
2013-03-22 03:02:00,27.6,13.1,29.93,WSW,240,2.0,3.0,54,0.00,,,0.00,Wunderground v.1.15,2013-03-22 07:02:00,
2013-03-22 03:07:00,27.6,13.1,29.93,West,259,2.0,4.0,54,0.00,,,0.00,Wunderground v.1.15,2013-03-22 07:07:00,
2013-03-22 03:12:00,27.7,13.2,29.93,SW,236,3.0,3.0,54,0.00,,,0.00,Wunderground v.1.15,2013-03-22 07:12:00,
2013-03-22 03:17:00,27.7,13.2,29.93,West,266,3.0,4.0,54,0.00,,,0.00,Wunderground v.1.15,2013-03-22 07:17:00,
2013-03-22 03:22:00,27.9,13.4,29.93,WSW,249,1.0,5.0,54,0.00,,,0.00,Wunderground v.1.15,2013-03-22 07:22:00,
2013-03-22 03:27:00,27.9,13.4,29.93,West,262,1.0,5.0,54,0.00,,,0.00,Wunderground v.1.15,2013-03-22 07:27:00,
2013-03-22 03:32:00,27.9,13.4,29.93,WSW,252,4.0,6.0,54,0.00,,,0.00,Wunderground v.1.15,2013-03-22 07:32:00,
2013-03-22 03:38:00,27.9,13.4,29.93,West,261,5.0,7.0,54,0.00,,,0.00,Wunderground v.1.15,2013-03-22 07:38:00,
2013-03-22 03:43:00,27.8,13.3,29.93,West,259,2.0,5.0,54,0.00,,,0.00,Wunderground v.1.15,2013-03-22 07:43:00,
2013-03-22 03:48:00,27.8,13.7,29.93,West,273,2.0,6.0,55,0.00,,,0.00,Wunderground v.1.15,2013-03-22 07:48:00,
2013-03-22 03:53:00,27.7,13.6,29.92,West,267,3.0,3.0,55,0.00,,,0.00,Wunderground v.1.15,2013-03-22 07:53:00,
2013-03-22 03:58:00,27.7,13.6,29.92,West,269,6.0,8.0,55,0.00,,,0.00,Wunderground v.1.15,2013-03-22 07:58:00,
2013-03-22 04:03:00,27.8,14.1,29.92,West,270,8.0,8.0,56,0.00,,,0.00,Wunderground v.1.15,2013-03-22 08:03:00,
2013-03-22 04:08:00,27.9,14.2,29.92,West,263,4.0,8.0,56,0.00,,,0.00,Wunderground v.1.15,2013-03-22 08:08:00,
2013-03-22 04:13:00,28.0,14.3,29.92,WSW,253,5.0,5.0,56,0.00,,,0.00,Wunderground v.1.15,2013-03-22 08:13:00,
2013-03-22 04:18:00,28.0,14.3,29.92,West,262,3.0,8.0,56,0.00,,,0.00,Wunderground v.1.15,2013-03-22 08:18:00,
2013-03-22 04:23:00,28.2,14.5,29.92,WSW,253,4.0,7.0,56,0.00,,,0.00,Wunderground v.1.15,2013-03-22 08:23:00,
2013-03-22 04:28:00,28.3,14.6,29.92,West,263,7.0,8.0,56,0.00,,,0.00,Wunderground v.1.15,2013-03-22 08:28:00,
2013-03-22 04:33:00,28.4,14.7,29.92,WNW,283,8.0,14.0,56,0.00,,,0.00,Wunderground v.1.15,2013-03-22 08:33:00,
2013-03-22 04:38:00,28.5,14.8,29.92,West,268,9.0,14.0,56,0.00,,,0.00,Wunderground v.1.15,2013-03-22 08:38:00,
2013-03-22 04:43:00,28.6,14.9,29.92,West,280,3.0,10.0,56,0.00,,,0.00,Wunderground v.1.15,2013-03-22 08:43:00,
2013-03-22 04:48:00,28.7,15.0,29.92,West,274,5.0,11.0,56,0.00,,,0.00,Wunderground v.1.15,2013-03-22 08:48:00,
2013-03-22 04:53:00,28.7,15.0,29.93,West,264,6.0,9.0,56,0.00,,,0.00,Wunderground v.1.15,2013-03-22 08:53:00,
2013-03-22 04:58:00,28.8,15.1,29.93,WSW,242,7.0,9.0,56,0.00,,,0.00,Wunderground v.1.15,2013-03-22 08:58:00,
2013-03-22 05:03:00,28.9,14.7,29.92,West,273,3.0,9.0,55,0.00,,,0.00,Wunderground v.1.15,2013-03-22 09:03:00,
2013-03-22 05:08:00,28.9,15.2,29.93,SW,227,6.0,11.0,56,0.00,,,0.00,Wunderground v.1.15,2013-03-22 09:08:00,
2013-03-22 05:13:00,29.0,15.2,29.92,WSW,253,6.0,9.0,56,0.00,,,0.00,Wunderground v.1.15,2013-03-22 09:13:00,
2013-03-22 05:18:00,29.0,14.8,29.93,West,261,5.0,12.0,55,0.00,,,0.00,Wunderground v.1.15,2013-03-22 09:18:00,
2013-03-22 05:23:00,29.0,14.8,29.93,WSW,257,4.0,9.0,55,0.00,,,0.00,Wunderground v.1.15,2013-03-22 09:23:00,
2013-03-22 05:28:00,29.0,14.8,29.93,West,266,6.0,9.0,55,0.00,,,0.00,Wunderground v.1.15,2013-03-22 09:28:00,
2013-03-22 05:33:00,29.0,14.8,29.93,West,268,4.0,7.0,55,0.00,,,0.00,Wunderground v.1.15,2013-03-22 09:33:00,
2013-03-22 05:38:00,29.1,14.9,29.93,WSW,252,2.0,8.0,55,0.00,,,0.00,Wunderground v.1.15,2013-03-22 09:38:00,
2013-03-22 05:43:00,29.1,14.9,29.93,West,274,9.0,9.0,55,0.00,,,0.00,Wunderground v.1.15,2013-03-22 09:43:00,
2013-03-22 05:48:00,29.1,14.9,29.93,West,262,3.0,9.0,55,0.00,,,0.00,Wunderground v.1.15,2013-03-22 09:48:00,
2013-03-22 05:53:00,29.1,14.9,29.94,West,263,3.0,9.0,55,0.00,,,0.00,Wunderground v.1.15,2013-03-22 09:53:00,
2013-03-22 05:58:00,29.2,15.0,29.94,West,267,4.0,9.0,55,0.00,,,0.00,Wunderground v.1.15,2013-03-22 09:58:00,
2013-03-22 06:03:00,29.2,15.0,29.95,West,261,3.0,7.0,55,0.00,,,0.00,Wunderground v.1.15,2013-03-22 10:03:00,
2013-03-22 06:08:00,29.1,14.9,29.95,WSW,256,5.0,7.0,55,0.00,,,0.00,Wunderground v.1.15,2013-03-22 10:08:00,
2013-03-22 06:13:00,29.1,14.9,29.95,WSW,251,4.0,6.0,55,0.00,,,0.00,Wunderground v.1.15,2013-03-22 10:13:00,
2013-03-22 06:18:00,29.0,15.2,29.95,SW,221,3.0,6.0,56,0.00,,,0.00,Wunderground v.1.15,2013-03-22 10:18:00,
2013-03-22 06:23:00,29.0,15.2,29.95,WSW,244,3.0,7.0,56,0.00,,,0.00,Wunderground v.1.15,2013-03-22 10:23:00,
2013-03-22 06:28:00,29.0,15.2,29.95,West,266,3.0,7.0,56,0.00,,,0.00,Wunderground v.1.15,2013-03-22 10:28:00,
2013-03-22 06:33:00,29.0,15.2,29.95,West,261,1.0,5.0,56,0.00,,,0.00,Wunderground v.1.15,2013-03-22 10:33:00,
2013-03-22 06:38:00,28.9,15.2,29.95,WNW,291,5.0,7.0,56,0.00,,,0.00,Wunderground v.1.15,2013-03-22 10:38:00,
2013-03-22 06:43:00,28.9,15.6,29.95,West,263,4.0,7.0,57,0.00,,,0.00,Wunderground v.1.15,2013-03-22 10:43:00,
2013-03-22 06:48:00,29.0,15.2,29.96,West,265,5.0,9.0,56,0.00,,,0.00,Wunderground v.1.15,2013-03-22 10:48:00,
2013-03-22 06:53:00,29.1,15.3,29.96,WSW,253,5.0,6.0,56,0.00,,,0.00,Wunderground v.1.15,2013-03-22 10:53:00,
2013-03-22 06:58:00,29.2,15.4,29.96,West,259,3.0,6.0,56,0.00,,,0.00,Wunderground v.1.15,2013-03-22 10:58:00,
2013-03-22 07:03:00,29.1,15.3,29.96,WSW,251,6.0,6.0,56,0.00,,,0.00,Wunderground v.1.15,2013-03-22 11:03:00,
2013-03-22 07:09:00,29.0,15.2,29.96,West,271,2.0,6.0,56,0.00,,,0.00,Wunderground v.1.15,2013-03-22 11:09:00,
2013-03-22 07:14:00,28.9,15.6,29.96,WSW,241,2.0,7.0,57,0.00,,,0.00,Wunderground v.1.15,2013-03-22 11:14:00,
2013-03-22 07:19:00,28.9,15.6,29.96,WSW,245,4.0,7.0,57,0.00,,,0.00,Wunderground v.1.15,2013-03-22 11:19:00,
2013-03-22 07:24:00,28.9,15.6,29.96,WSW,256,5.0,6.0,57,0.00,,,0.00,Wunderground v.1.15,2013-03-22 11:24:00,
2013-03-22 07:29:00,29.0,15.7,29.96,SW,225,3.0,6.0,57,0.00,,,0.00,Wunderground v.1.15,2013-03-22 11:29:00,
2013-03-22 07:34:00,29.2,15.4,29.97,SW,230,5.0,10.0,56,0.00,,,0.00,Wunderground v.1.15,2013-03-22 11:34:00,
2013-03-22 07:39:00,29.3,15.5,29.97,WSW,244,2.0,10.0,56,0.00,,,0.00,Wunderground v.1.15,2013-03-22 11:39:00,
2013-03-22 07:44:00,29.6,15.8,29.97,WSW,241,2.0,10.0,56,0.00,,,0.00,Wunderground v.1.15,2013-03-22 11:44:00,
2013-03-22 07:49:00,29.7,15.9,29.97,West,259,2.0,10.0,56,0.00,,,0.00,Wunderground v.1.15,2013-03-22 11:49:00,
2013-03-22 07:54:00,29.9,16.1,29.97,SW,230,4.0,6.0,56,0.00,,,0.00,Wunderground v.1.15,2013-03-22 11:54:00,
2013-03-22 07:59:00,30.2,16.0,29.97,SW,219,4.0,6.0,55,0.00,,,0.00,Wunderground v.1.15,2013-03-22 11:59:00,
2013-03-22 08:04:00,30.6,16.3,29.98,West,277,3.0,7.0,55,0.00,,,0.00,Wunderground v.1.15,2013-03-22 12:04:00,
2013-03-22 08:09:00,30.8,16.1,29.98,West,274,4.0,7.0,54,0.00,,,0.00,Wunderground v.1.15,2013-03-22 12:09:00,
2013-03-22 08:14:00,31.1,16.4,29.98,WSW,238,0.0,10.0,54,0.00,,,0.00,Wunderground v.1.15,2013-03-22 12:14:00,
2013-03-22 08:19:00,31.4,16.2,29.98,WSW,239,3.0,10.0,53,0.00,,,0.00,Wunderground v.1.15,2013-03-22 12:19:00,
2013-03-22 08:24:00,31.5,16.3,29.98,SSW,198,3.0,11.0,53,0.00,,,0.00,Wunderground v.1.15,2013-03-22 12:24:00,
2013-03-22 08:29:00,31.7,16.1,29.98,SW,215,3.0,11.0,52,0.00,,,0.00,Wunderground v.1.15,2013-03-22 12:29:00,
2013-03-22 08:34:00,32.0,16.8,29.98,West,267,4.0,10.0,53,0.00,,,0.00,Wunderground v.1.15,2013-03-22 12:34:00,
2013-03-22 08:39:00,32.4,17.2,29.98,West,272,6.0,10.0,53,0.00,,,0.00,Wunderground v.1.15,2013-03-22 12:39:00,
2013-03-22 08:45:00,32.6,16.9,29.98,WSW,243,2.0,6.0,52,0.00,,,0.00,Wunderground v.1.15,2013-03-22 12:45:00,
2013-03-22 08:50:00,32.8,17.1,29.98,West,273,5.0,6.0,52,0.00,,,0.00,Wunderground v.1.15,2013-03-22 12:50:00,
2013-03-22 08:55:00,33.1,16.9,29.99,West,267,3.0,10.0,51,0.00,,,0.00,Wunderground v.1.15,2013-03-22 12:55:00,
2013-03-22 09:00:00,33.6,17.4,29.99,West,264,6.0,7.0,51,0.00,,,0.00,Wunderground v.1.15,2013-03-22 13:00:00,
2013-03-22 09:05:00,33.4,16.7,29.98,West,269,12.0,16.0,50,0.00,,,0.00,Wunderground v.1.15,2013-03-22 13:05:00,
2013-03-22 09:10:00,33.4,16.7,29.98,West,263,8.0,10.0,50,0.00,,,0.00,Wunderground v.1.15,2013-03-22 13:10:00,
2013-03-22 09:15:00,33.5,16.8,29.99,West,272,12.0,15.0,50,0.00,,,0.00,Wunderground v.1.15,2013-03-22 13:15:00,
2013-03-22 09:20:00,33.6,16.9,29.99,West,279,11.0,14.0,50,0.00,,,0.00,Wunderground v.1.15,2013-03-22 13:20:00,
2013-03-22 09:25:00,33.8,17.1,29.99,West,270,7.0,15.0,50,0.00,,,0.00,Wunderground v.1.15,2013-03-22 13:25:00,
2013-03-22 09:30:00,33.3,16.6,29.99,West,277,8.0,13.0,50,0.00,,,0.00,Wunderground v.1.15,2013-03-22 13:30:00,
2013-03-22 09:35:00,33.2,17.0,29.99,WNW,284,11.0,17.0,51,0.00,,,0.00,Wunderground v.1.15,2013-03-22 13:35:00,
2013-03-22 09:40:00,33.4,17.2,29.99,West,267,4.0,10.0,51,0.00,,,0.00,Wunderground v.1.15,2013-03-22 13:40:00,
2013-03-22 09:45:00,33.6,17.4,29.99,WNW,282,11.0,15.0,51,0.00,,,0.00,Wunderground v.1.15,2013-03-22 13:45:00,
2013-03-22 09:50:00,34.8,18.5,29.99,WNW,294,10.0,11.0,51,0.00,,,0.00,Wunderground v.1.15,2013-03-22 13:50:00,
2013-03-22 09:55:00,35.5,18.7,30.00,West,267,9.0,16.0,50,0.00,,,0.00,Wunderground v.1.15,2013-03-22 13:55:00,
2013-03-22 10:00:00,35.3,18.0,30.00,West,261,6.0,13.0,49,0.00,,,0.00,Wunderground v.1.15,2013-03-22 14:00:00,
2013-03-22 10:05:00,35.7,18.4,29.99,WSW,250,8.0,17.0,49,0.00,,,0.00,Wunderground v.1.15,2013-03-22 14:05:00,
2013-03-22 10:10:00,36.2,18.4,29.99,WSW,253,6.0,10.0,48,0.00,,,0.00,Wunderground v.1.15,2013-03-22 14:10:00,
2013-03-22 10:16:00,36.0,18.2,29.99,West,273,10.0,19.0,48,0.00,,,0.00,Wunderground v.1.15,2013-03-22 14:16:00,
2013-03-22 10:21:00,36.5,18.6,29.99,WNW,296,5.0,10.0,48,0.00,,,0.00,Wunderground v.1.15,2013-03-22 14:21:00,
2013-03-22 10:26:00,36.6,18.2,29.99,WNW,291,6.0,17.0,47,0.00,,,0.00,Wunderground v.1.15,2013-03-22 14:26:00,
2013-03-22 10:31:00,36.9,18.5,29.99,West,273,15.0,17.0,47,0.00,,,0.00,Wunderground v.1.15,2013-03-22 14:31:00,
2013-03-22 10:36:00,36.6,17.7,29.99,WNW,284,6.0,17.0,46,0.00,,,0.00,Wunderground v.1.15,2013-03-22 14:36:00,
2013-03-22 10:41:00,37.7,19.3,29.99,West,281,10.0,10.0,47,0.00,,,0.00,Wunderground v.1.15,2013-03-22 14:41:00,
2013-03-22 10:46:00,37.7,18.8,29.99,West,261,11.0,15.0,46,0.00,,,0.00,Wunderground v.1.15,2013-03-22 14:46:00,
2013-03-22 10:52:00,37.8,18.8,29.98,WNW,291,10.0,14.0,46,0.00,,,0.00,Wunderground v.1.15,2013-03-22 14:52:00,
2013-03-22 10:57:00,37.3,18.4,29.99,West,277,11.0,23.0,46,0.00,,,0.00,Wunderground v.1.15,2013-03-22 14:57:00,
2013-03-22 11:02:00,37.7,18.8,29.99,West,278,10.0,20.0,46,0.00,,,0.00,Wunderground v.1.15,2013-03-22 15:02:00,
2013-03-22 11:07:00,37.5,18.6,29.99,NW,308,17.0,20.0,46,0.00,,,0.00,Wunderground v.1.15,2013-03-22 15:07:00,
2013-03-22 11:12:00,37.5,18.6,29.98,WNW,295,6.0,14.0,46,0.00,,,0.00,Wunderground v.1.15,2013-03-22 15:12:00,
2013-03-22 11:17:00,37.7,18.8,29.99,WNW,284,12.0,16.0,46,0.00,,,0.00,Wunderground v.1.15,2013-03-22 15:17:00,
2013-03-22 11:22:00,37.8,19.3,29.99,West,259,11.0,15.0,47,0.00,,,0.00,Wunderground v.1.15,2013-03-22 15:22:00,
2013-03-22 11:27:00,38.6,19.1,29.98,WNW,290,11.0,23.0,45,0.00,,,0.00,Wunderground v.1.15,2013-03-22 15:27:00,
2013-03-22 11:32:00,38.4,18.4,29.98,NW,305,8.0,20.0,44,0.00,,,0.00,Wunderground v.1.15,2013-03-22 15:32:00,
2013-03-22 11:37:00,38.9,18.8,29.98,WNW,300,7.0,20.0,44,0.00,,,0.00,Wunderground v.1.15,2013-03-22 15:37:00,
2013-03-22 11:42:00,39.7,19.0,29.98,NW,306,13.0,19.0,43,0.00,,,0.00,Wunderground v.1.15,2013-03-22 15:42:00,
2013-03-22 11:47:00,39.5,19.4,29.98,WNW,297,9.0,19.0,44,0.00,,,0.00,Wunderground v.1.15,2013-03-22 15:47:00,
2013-03-22 11:52:00,38.7,20.2,29.98,West,259,8.0,12.0,47,0.00,,,0.00,Wunderground v.1.15,2013-03-22 15:52:00,
2013-03-22 11:57:00,38.8,18.2,29.98,West,281,7.0,15.0,43,0.00,,,0.00,Wunderground v.1.15,2013-03-22 15:57:00,
2013-03-22 12:02:00,38.2,18.2,29.98,NNW,340,9.0,14.0,44,0.00,,,0.00,Wunderground v.1.15,2013-03-22 16:02:00,
2013-03-22 12:07:00,37.7,17.7,29.98,West,261,10.0,14.0,44,0.00,,,0.00,Wunderground v.1.15,2013-03-22 16:07:00,
2013-03-22 12:12:00,37.4,17.4,29.98,West,280,7.0,15.0,44,0.00,,,0.00,Wunderground v.1.15,2013-03-22 16:12:00,
2013-03-22 12:17:00,38.4,18.9,29.98,South,184,6.0,15.0,45,0.00,,,0.00,Wunderground v.1.15,2013-03-22 16:17:00,
2013-03-22 12:22:00,40.9,20.6,29.98,West,280,5.0,10.0,44,0.00,,,0.00,Wunderground v.1.15,2013-03-22 16:22:00,
2013-03-22 12:27:00,42.5,21.0,29.98,West,280,10.0,14.0,42,0.00,,,0.00,Wunderground v.1.15,2013-03-22 16:27:00,
2013-03-22 12:32:00,42.2,19.6,29.98,WSW,244,5.0,12.0,40,0.00,,,0.00,Wunderground v.1.15,2013-03-22 16:32:00,
2013-03-22 12:37:00,42.1,20.1,29.97,West,261,9.0,18.0,41,0.00,,,0.00,Wunderground v.1.15,2013-03-22 16:37:00,
2013-03-22 12:42:00,42.5,21.5,29.97,WSW,254,7.0,10.0,43,0.00,,,0.00,Wunderground v.1.15,2013-03-22 16:42:00,
2013-03-22 12:47:00,42.3,20.2,29.97,SW,232,5.0,10.0,41,0.00,,,0.00,Wunderground v.1.15,2013-03-22 16:47:00,
2013-03-22 12:52:00,42.8,20.1,29.97,SW,217,3.0,16.0,40,0.00,,,0.00,Wunderground v.1.15,2013-03-22 16:52:00,
2013-03-22 12:57:00,42.3,19.7,29.97,WNW,286,8.0,16.0,40,0.00,,,0.00,Wunderground v.1.15,2013-03-22 16:57:00,
2013-03-22 13:02:00,41.8,20.4,29.96,WSW,244,7.0,8.0,42,0.00,,,0.00,Wunderground v.1.15,2013-03-22 17:02:00,
2013-03-22 13:08:00,42.1,19.5,29.96,West,272,11.0,17.0,40,0.00,,,0.00,Wunderground v.1.15,2013-03-22 17:08:00,
2013-03-22 13:13:00,43.0,21.4,29.96,West,271,10.0,14.0,42,0.00,,,0.00,Wunderground v.1.15,2013-03-22 17:13:00,
2013-03-22 13:18:00,43.8,22.2,29.96,SW,236,4.0,14.0,42,0.00,,,0.00,Wunderground v.1.15,2013-03-22 17:18:00,
2013-03-22 13:23:00,43.5,20.2,29.96,SSW,213,7.0,14.0,39,0.00,,,0.00,Wunderground v.1.15,2013-03-22 17:23:00,
2013-03-22 13:28:00,43.4,19.5,29.96,WSW,253,8.0,14.0,38,0.00,,,0.00,Wunderground v.1.15,2013-03-22 17:28:00,
2013-03-22 13:33:00,42.4,19.2,29.96,WSW,244,6.0,13.0,39,0.00,,,0.00,Wunderground v.1.15,2013-03-22 17:33:00,
2013-03-22 13:38:00,43.0,20.9,29.95,WNW,293,5.0,13.0,41,0.00,,,0.00,Wunderground v.1.15,2013-03-22 17:38:00,
2013-03-22 13:43:00,42.8,20.7,29.95,West,266,5.0,12.0,41,0.00,,,0.00,Wunderground v.1.15,2013-03-22 17:43:00,
2013-03-22 13:48:00,42.4,20.9,29.95,South,173,7.0,15.0,42,0.00,,,0.00,Wunderground v.1.15,2013-03-22 17:48:00,
2013-03-22 13:53:00,44.3,21.5,29.95,West,277,7.0,10.0,40,0.00,,,0.00,Wunderground v.1.15,2013-03-22 17:53:00,
2013-03-22 13:58:00,44.6,19.9,29.94,WNW,284,9.0,12.0,37,0.00,,,0.00,Wunderground v.1.15,2013-03-22 17:58:00,
2013-03-22 14:03:00,44.2,21.4,29.94,SW,233,4.0,15.0,40,0.00,,,0.00,Wunderground v.1.15,2013-03-22 18:03:00,
2013-03-22 14:08:00,44.7,20.6,29.94,West,273,9.0,15.0,38,0.00,,,0.00,Wunderground v.1.15,2013-03-22 18:08:00,
2013-03-22 14:13:00,44.7,21.8,29.94,NW,304,13.0,15.0,40,0.00,,,0.00,Wunderground v.1.15,2013-03-22 18:13:00,
2013-03-22 14:18:00,44.3,21.5,29.94,WNW,285,6.0,15.0,40,0.00,,,0.00,Wunderground v.1.15,2013-03-22 18:18:00,
2013-03-22 14:23:00,44.2,19.5,29.93,WSW,255,12.0,14.0,37,0.00,,,0.00,Wunderground v.1.15,2013-03-22 18:23:00,
2013-03-22 14:28:00,44.9,21.4,29.93,West,265,8.0,14.0,39,0.00,,,0.00,Wunderground v.1.15,2013-03-22 18:28:00,
2013-03-22 14:33:00,45.9,24.1,29.93,WSW,240,3.0,8.0,42,0.00,,,0.00,Wunderground v.1.15,2013-03-22 18:33:00,
2013-03-22 14:38:00,45.4,21.2,29.93,WSW,245,7.0,10.0,38,0.00,,,0.00,Wunderground v.1.15,2013-03-22 18:38:00,
2013-03-22 14:43:00,45.8,22.2,29.93,WSW,244,6.0,10.0,39,0.00,,,0.00,Wunderground v.1.15,2013-03-22 18:43:00,
2013-03-22 14:48:00,46.2,21.3,29.93,WNW,290,5.0,12.0,37,0.00,,,0.00,Wunderground v.1.15,2013-03-22 18:48:00,
2013-03-22 14:53:00,45.9,21.1,29.93,WSW,256,9.0,11.0,37,0.00,,,0.00,Wunderground v.1.15,2013-03-22 18:53:00,
2013-03-22 14:59:00,45.7,20.9,29.92,West,277,8.0,15.0,37,0.00,,,0.00,Wunderground v.1.15,2013-03-22 18:59:00,
2013-03-22 15:04:00,45.6,21.4,29.92,West,263,6.0,14.0,38,0.00,,,0.00,Wunderground v.1.15,2013-03-22 19:04:00,
2013-03-22 15:09:00,46.0,21.8,29.92,West,267,13.0,14.0,38,0.00,,,0.00,Wunderground v.1.15,2013-03-22 19:09:00,
2013-03-22 15:14:00,45.8,21.0,29.92,NW,304,7.0,16.0,37,0.00,,,0.00,Wunderground v.1.15,2013-03-22 19:14:00,
2013-03-22 15:19:00,45.6,20.8,29.92,West,262,5.0,16.0,37,0.00,,,0.00,Wunderground v.1.15,2013-03-22 19:19:00,
2013-03-22 15:24:00,46.1,21.9,29.92,WNW,301,3.0,9.0,38,0.00,,,0.00,Wunderground v.1.15,2013-03-22 19:24:00,
2013-03-22 15:29:00,46.2,21.3,29.92,WSW,253,6.0,13.0,37,0.00,,,0.00,Wunderground v.1.15,2013-03-22 19:29:00,
2013-03-22 15:34:00,46.1,21.9,29.92,SW,218,9.0,13.0,38,0.00,,,0.00,Wunderground v.1.15,2013-03-22 19:34:00,
2013-03-22 15:39:00,45.4,20.0,29.92,WNW,283,9.0,15.0,36,0.00,,,0.00,Wunderground v.1.15,2013-03-22 19:39:00,
2013-03-22 15:44:00,45.7,20.2,29.92,WNW,283,7.0,10.0,36,0.00,,,0.00,Wunderground v.1.15,2013-03-22 19:44:00,
2013-03-22 15:49:00,45.9,21.1,29.92,NW,306,14.0,14.0,37,0.00,,,0.00,Wunderground v.1.15,2013-03-22 19:49:00,
2013-03-22 15:54:00,45.6,20.8,29.93,West,278,10.0,16.0,37,0.00,,,0.00,Wunderground v.1.15,2013-03-22 19:54:00,
2013-03-22 15:59:00,45.7,22.1,29.92,WSW,252,4.0,16.0,39,0.00,,,0.00,Wunderground v.1.15,2013-03-22 19:59:00,
2013-03-22 16:04:00,46.0,21.1,29.93,WNW,286,5.0,11.0,37,0.00,,,0.00,Wunderground v.1.15,2013-03-22 20:04:00,
2013-03-22 16:09:00,46.0,21.8,29.93,West,276,8.0,13.0,38,0.00,,,0.00,Wunderground v.1.15,2013-03-22 20:09:00,
2013-03-22 16:14:00,46.1,21.9,29.93,WNW,290,7.0,13.0,38,0.00,,,0.00,Wunderground v.1.15,2013-03-22 20:14:00,
2013-03-22 16:19:00,46.2,21.3,29.92,NW,313,9.0,16.0,37,0.00,,,0.00,Wunderground v.1.15,2013-03-22 20:19:00,
2013-03-22 16:24:00,46.1,21.2,29.92,West,267,11.0,15.0,37,0.00,,,0.00,Wunderground v.1.15,2013-03-22 20:24:00,
2013-03-22 16:29:00,45.9,21.1,29.92,WNW,286,5.0,21.0,37,0.00,,,0.00,Wunderground v.1.15,2013-03-22 20:29:00,
2013-03-22 16:34:00,46.3,21.4,29.92,West,279,6.0,10.0,37,0.00,,,0.00,Wunderground v.1.15,2013-03-22 20:34:00,
2013-03-22 16:39:00,46.4,20.9,29.92,NW,315,7.0,15.0,36,0.00,,,0.00,Wunderground v.1.15,2013-03-22 20:39:00,
2013-03-22 16:44:00,46.4,21.5,29.92,WNW,298,8.0,13.0,37,0.00,,,0.00,Wunderground v.1.15,2013-03-22 20:44:00,
2013-03-22 16:49:00,46.1,20.6,29.92,WNW,291,2.0,14.0,36,0.00,,,0.00,Wunderground v.1.15,2013-03-22 20:49:00,
2013-03-22 16:54:00,46.3,22.0,29.93,West,265,5.0,8.0,38,0.00,,,0.00,Wunderground v.1.15,2013-03-22 20:54:00,
2013-03-22 16:59:00,46.8,21.9,29.92,WNW,297,6.0,10.0,37,0.00,,,0.00,Wunderground v.1.15,2013-03-22 20:59:00,
2013-03-22 17:04:00,46.6,22.3,29.92,WSW,253,7.0,13.0,38,0.00,,,0.00,Wunderground v.1.15,2013-03-22 21:04:00,
2013-03-22 17:09:00,46.7,21.1,29.92,West,277,8.0,8.0,36,0.00,,,0.00,Wunderground v.1.15,2013-03-22 21:09:00,
2013-03-22 17:14:00,46.3,20.8,29.92,WSW,252,8.0,13.0,36,0.00,,,0.00,Wunderground v.1.15,2013-03-22 21:14:00,
2013-03-22 17:19:00,46.1,21.2,29.92,SW,218,7.0,9.0,37,0.00,,,0.00,Wunderground v.1.15,2013-03-22 21:19:00,
2013-03-22 17:24:00,46.6,21.7,29.93,WSW,253,10.0,12.0,37,0.00,,,0.00,Wunderground v.1.15,2013-03-22 21:24:00,
2013-03-22 17:29:00,46.3,20.8,29.93,NW,310,9.0,9.0,36,0.00,,,0.00,Wunderground v.1.15,2013-03-22 21:29:00,
2013-03-22 17:35:00,46.1,21.2,29.93,West,279,6.0,13.0,37,0.00,,,0.00,Wunderground v.1.15,2013-03-22 21:35:00,
2013-03-22 17:39:00,45.9,21.1,29.93,West,269,3.0,8.0,37,0.00,,,0.00,Wunderground v.1.15,2013-03-22 21:39:00,
2013-03-22 17:44:00,46.3,22.0,29.93,West,274,6.0,16.0,38,0.00,,,0.00,Wunderground v.1.15,2013-03-22 21:44:00,
2013-03-22 17:49:00,46.1,21.2,29.93,WNW,301,9.0,10.0,37,0.00,,,0.00,Wunderground v.1.15,2013-03-22 21:49:00,
2013-03-22 17:54:00,45.9,21.1,29.93,West,270,14.0,14.0,37,0.00,,,0.00,Wunderground v.1.15,2013-03-22 21:54:00,
2013-03-22 17:59:00,45.6,21.4,29.93,West,275,10.0,10.0,38,0.00,,,0.00,Wunderground v.1.15,2013-03-22 21:59:00,
2013-03-22 18:05:00,45.5,21.3,29.94,West,279,9.0,11.0,38,0.00,,,0.00,Wunderground v.1.15,2013-03-22 22:05:00,
2013-03-22 18:10:00,45.3,20.5,29.94,WSW,246,4.0,8.0,37,0.00,,,0.00,Wunderground v.1.15,2013-03-22 22:10:00,
2013-03-22 18:15:00,45.2,21.1,29.94,West,271,11.0,15.0,38,0.00,,,0.00,Wunderground v.1.15,2013-03-22 22:15:00,
2013-03-22 18:20:00,44.9,20.8,29.94,WSW,256,10.0,10.0,38,0.00,,,0.00,Wunderground v.1.15,2013-03-22 22:20:00,
2013-03-22 18:25:00,44.6,21.1,29.94,WNW,291,7.0,16.0,39,0.00,,,0.00,Wunderground v.1.15,2013-03-22 22:25:00,
2013-03-22 18:30:00,44.4,21.6,29.94,WNW,297,13.0,14.0,40,0.00,,,0.00,Wunderground v.1.15,2013-03-22 22:30:00,
2013-03-22 18:35:00,44.2,20.8,29.94,WNW,284,7.0,16.0,39,0.00,,,0.00,Wunderground v.1.15,2013-03-22 22:35:00,
2013-03-22 18:40:00,44.0,21.2,29.94,WSW,254,5.0,9.0,40,0.00,,,0.00,Wunderground v.1.15,2013-03-22 22:40:00,
2013-03-22 18:45:00,43.8,21.0,29.94,WNW,300,10.0,14.0,40,0.00,,,0.00,Wunderground v.1.15,2013-03-22 22:45:00,
2013-03-22 18:50:00,43.5,21.3,29.94,West,280,11.0,11.0,41,0.00,,,0.00,Wunderground v.1.15,2013-03-22 22:50:00,
2013-03-22 18:55:00,43.3,21.1,29.95,West,279,6.0,11.0,41,0.00,,,0.00,Wunderground v.1.15,2013-03-22 22:55:00,
2013-03-22 19:00:00,43.1,21.0,29.96,West,272,7.0,7.0,41,0.00,,,0.00,Wunderground v.1.15,2013-03-22 23:00:00,
2013-03-22 19:05:00,42.9,20.8,29.96,West,269,7.0,11.0,41,0.00,,,0.00,Wunderground v.1.15,2013-03-22 23:05:00,
2013-03-22 19:11:00,42.6,21.1,29.96,West,280,6.0,9.0,42,0.00,,,0.00,Wunderground v.1.15,2013-03-22 23:11:00,
2013-03-22 19:16:00,42.5,21.0,29.96,WNW,292,3.0,9.0,42,0.00,,,0.00,Wunderground v.1.15,2013-03-22 23:16:00,
2013-03-22 19:21:00,42.2,20.7,29.96,WNW,289,6.0,9.0,42,0.00,,,0.00,Wunderground v.1.15,2013-03-22 23:21:00,
2013-03-22 19:27:00,41.8,20.9,29.97,West,273,8.0,9.0,43,0.00,,,0.00,Wunderground v.1.15,2013-03-22 23:27:00,
2013-03-22 19:32:00,41.6,20.7,29.97,WNW,289,5.0,9.0,43,0.00,,,0.00,Wunderground v.1.15,2013-03-22 23:32:00,
2013-03-22 19:37:00,41.4,21.1,29.97,West,269,3.0,10.0,44,0.00,,,0.00,Wunderground v.1.15,2013-03-22 23:37:00,
2013-03-22 19:42:00,41.2,20.9,29.97,West,273,4.0,6.0,44,0.00,,,0.00,Wunderground v.1.15,2013-03-22 23:42:00,
2013-03-22 19:47:00,40.7,21.0,29.97,WNW,288,3.0,6.0,45,0.00,,,0.00,Wunderground v.1.15,2013-03-22 23:47:00,
2013-03-22 19:52:00,40.6,20.9,29.97,NW,317,3.0,8.0,45,0.00,,,0.00,Wunderground v.1.15,2013-03-22 23:52:00,
2013-03-22 19:55:00,40.4,21.2,29.98,West,270,4.0,-999.0,46,0.00,,,0.00,Wunderground v.1.15,2013-03-22 23:55:00,
2013-03-22 20:00:00,40.2,21.0,29.98,West,270,3.0,-999.0,46,0.00,,,0.00,Wunderground v.1.15,2013-03-23 00:00:00,
2013-03-22 20:05:00,40.1,21.0,29.98,WNW,293,2.0,-999.0,46,0.00,,,0.00,Wunderground v.1.15,2013-03-23 00:05:00,
2013-03-22 20:10:00,39.8,21.2,29.98,WNW,293,2.0,-999.0,47,0.00,,,0.00,Wunderground v.1.15,2013-03-23 00:10:00,
2013-03-22 20:15:00,39.6,21.0,29.98,WNW,293,2.0,-999.0,47,0.00,,,0.00,Wunderground v.1.15,2013-03-23 00:15:00,
2013-03-22 20:20:00,39.5,20.9,29.98,WNW,293,1.0,-999.0,47,0.00,,,0.00,Wunderground v.1.15,2013-03-23 00:20:00,
2013-03-22 20:25:00,39.6,21.0,29.98,WNW,293,1.0,-999.0,47,0.00,,,0.00,Wunderground v.1.15,2013-03-23 00:25:00,
2013-03-22 20:30:00,39.6,21.0,29.99,WNW,293,0.0,-999.0,47,0.00,,,0.00,Wunderground v.1.15,2013-03-23 00:30:00,
2013-03-22 20:35:00,39.7,21.1,29.99,WNW,293,1.0,-999.0,47,0.00,,,0.00,Wunderground v.1.15,2013-03-23 00:35:00,
2013-03-22 20:40:00,39.7,21.1,29.99,NW,315,1.0,-999.0,47,0.00,,,0.00,Wunderground v.1.15,2013-03-23 00:40:00,
2013-03-22 20:45:00,39.5,20.9,29.99,NW,315,1.0,-999.0,47,0.00,,,0.00,Wunderground v.1.15,2013-03-23 00:45:00,
2013-03-22 20:50:00,39.3,21.2,29.99,NW,315,1.0,-999.0,48,0.00,,,0.00,Wunderground v.1.15,2013-03-23 00:50:00,
2013-03-22 20:55:00,39.1,21.0,29.99,NW,315,1.0,-999.0,48,0.00,,,0.00,Wunderground v.1.15,2013-03-23 00:55:00,
2013-03-22 21:00:00,38.9,20.9,29.99,NW,315,1.0,-999.0,48,0.00,,,0.00,Wunderground v.1.15,2013-03-23 01:00:00,
2013-03-22 21:05:00,38.4,21.4,29.99,NW,315,1.0,-999.0,50,0.00,,,0.00,Wunderground v.1.15,2013-03-23 01:05:00,
2013-03-22 21:10:00,37.9,21.4,29.99,NW,315,1.0,-999.0,51,0.00,,,0.00,Wunderground v.1.15,2013-03-23 01:10:00,
2013-03-22 21:15:00,37.6,22.0,29.99,NW,315,1.0,-999.0,53,0.00,,,0.00,Wunderground v.1.15,2013-03-23 01:15:00,
2013-03-22 21:20:00,37.6,21.5,29.99,NW,315,1.0,-999.0,52,0.00,,,0.00,Wunderground v.1.15,2013-03-23 01:20:00,
2013-03-22 21:25:00,37.7,21.2,29.99,NW,315,1.0,-999.0,51,0.00,,,0.00,Wunderground v.1.15,2013-03-23 01:25:00,
2013-03-22 21:30:00,37.6,21.1,29.99,NW,315,1.0,-999.0,51,0.00,,,0.00,Wunderground v.1.15,2013-03-23 01:30:00,
2013-03-22 21:35:00,37.5,21.5,29.99,NW,315,1.0,-999.0,52,0.00,,,0.00,Wunderground v.1.15,2013-03-23 01:35:00,
2013-03-22 21:40:00,37.7,21.2,30.00,NW,315,1.0,-999.0,51,0.00,,,0.00,Wunderground v.1.15,2013-03-23 01:40:00,
2013-03-22 21:45:00,37.4,21.4,30.00,NW,315,1.0,-999.0,52,0.00,,,0.00,Wunderground v.1.15,2013-03-23 01:45:00,
2013-03-22 21:50:00,37.7,21.2,30.00,NW,315,1.0,-999.0,51,0.00,,,0.00,Wunderground v.1.15,2013-03-23 01:50:00,
2013-03-22 21:55:00,37.9,21.4,30.00,WNW,293,1.0,-999.0,51,0.00,,,0.00,Wunderground v.1.15,2013-03-23 01:55:00,
2013-03-22 22:00:00,37.9,21.4,30.00,WNW,293,1.0,-999.0,51,0.00,,,0.00,Wunderground v.1.15,2013-03-23 02:00:00,
2013-03-22 22:05:00,37.6,21.5,30.01,WNW,293,0.0,-999.0,52,0.00,,,0.00,Wunderground v.1.15,2013-03-23 02:05:00,
2013-03-22 22:10:00,37.0,21.9,30.01,WNW,293,1.0,-999.0,54,0.00,,,0.00,Wunderground v.1.15,2013-03-23 02:10:00,
2013-03-22 22:15:00,37.1,21.1,30.01,WNW,293,1.0,-999.0,52,0.00,,,0.00,Wunderground v.1.15,2013-03-23 02:15:00,
2013-03-22 22:20:00,37.2,21.2,30.01,West,270,0.0,-999.0,52,0.00,,,0.00,Wunderground v.1.15,2013-03-23 02:20:00,
2013-03-22 22:25:00,37.0,21.4,30.01,West,270,1.0,-999.0,53,0.00,,,0.00,Wunderground v.1.15,2013-03-23 02:25:00,
2013-03-22 22:30:00,36.8,21.3,30.01,West,270,1.0,-999.0,53,0.00,,,0.00,Wunderground v.1.15,2013-03-23 02:30:00,
2013-03-22 22:35:00,36.8,21.3,30.01,WSW,248,1.0,-999.0,53,0.00,,,0.00,Wunderground v.1.15,2013-03-23 02:35:00,
2013-03-22 22:40:00,36.9,20.9,30.02,West,270,1.0,-999.0,52,0.00,,,0.00,Wunderground v.1.15,2013-03-23 02:40:00,
2013-03-22 22:45:00,36.8,21.3,30.02,West,270,1.0,-999.0,53,0.00,,,0.00,Wunderground v.1.15,2013-03-23 02:45:00,
2013-03-22 22:50:00,36.6,21.1,30.02,West,270,1.0,-999.0,53,0.00,,,0.00,Wunderground v.1.15,2013-03-23 02:50:00,
2013-03-22 22:55:00,36.4,20.9,30.02,West,270,0.0,-999.0,53,0.00,,,0.00,Wunderground v.1.15,2013-03-23 02:55:00,
2013-03-22 23:00:00,36.1,21.0,30.02,West,270,0.0,-999.0,54,0.00,,,0.00,Wunderground v.1.15,2013-03-23 03:00:00,
2013-03-22 23:05:00,36.0,20.9,30.02,West,270,0.0,-999.0,54,0.00,,,0.00,Wunderground v.1.15,2013-03-23 03:05:00,
2013-03-22 23:10:00,35.8,21.2,30.03,West,270,0.0,-999.0,55,0.00,,,0.00,Wunderground v.1.15,2013-03-23 03:10:00,
2013-03-22 23:15:00,35.6,21.0,30.03,West,270,1.0,-999.0,55,0.00,,,0.00,Wunderground v.1.15,2013-03-23 03:15:00,
2013-03-22 23:20:00,35.7,21.1,30.03,North,0,2.0,-999.0,55,0.00,,,0.00,Wunderground v.1.15,2013-03-23 03:20:00,
2013-03-22 23:25:00,35.4,21.2,30.03,North,0,1.0,-999.0,56,0.00,,,0.00,Wunderground v.1.15,2013-03-23 03:25:00,
2013-03-22 23:30:00,35.2,21.1,30.03,North,0,2.0,-999.0,56,0.00,,,0.00,Wunderground v.1.15,2013-03-23 03:30:00,
2013-03-22 23:35:00,35.2,21.1,30.03,NW,315,2.0,-999.0,56,0.00,,,0.00,Wunderground v.1.15,2013-03-23 03:35:00,
2013-03-22 23:40:00,35.0,21.3,30.03,WNW,293,2.0,-999.0,57,0.00,,,0.00,Wunderground v.1.15,2013-03-23 03:40:00,
2013-03-22 23:45:00,35.0,21.3,30.03,NW,315,2.0,-999.0,57,0.00,,,0.00,Wunderground v.1.15,2013-03-23 03:45:00,
2013-03-22 23:50:00,34.8,21.1,30.03,NW,315,1.0,-999.0,57,0.00,,,0.00,Wunderground v.1.15,2013-03-23 03:50:00,
2013-03-22 23:55:00,34.7,21.4,30.03,WNW,293,2.0,-999.0,58,0.00,,,0.00,Wunderground v.1.15,2013-03-23 03:55:00,